Regional Weather Roundup
Issued by NWS

Home | Current Version | Previous Version | Graphics & Text | Print | Product List | Glossary On
Versions: 1 2 3 4 5 6 7 8 9 10 11 12 13 14 15 16 17 18 19 20 21 22 23 24 25 26 27 28 29 30 31 32 33 34 35 36 37 38 39 40 41 42 43 44 45 46 47 48 49 50
000
ASUS43 KLOT 170708
RWRIL

ILLINOIS REGIONAL WEATHER ROUNDUP
NATIONAL WEATHER SERVICE CHICAGO/ROMEOVILLE IL
200 AM CDT THU AUG 17 2017

NOTE: "FAIR" INDICATES FEW OR NO CLOUDS BELOW 12,000 FEET WITH NO
SIGNIFICANT WEATHER AND/OR OBSTRUCTIONS TO VISIBILITY.

* THESE STATIONS ARE NOT UNDER NWS QUALITY CONTROL. THEY ALSO MAY NOT
  REPORT WEATHER SUCH AS PRECIPITATION OR FOG.

ILZ001-002-007-009-015-016-024-170800-
NORTHWEST ILLINOIS

CITY           SKY/WX    TMP DP  RH WIND       PRES   REMARKS
MOLINE         NOT AVBL
SAVANNA*       CLOUDY    74  71  88 S9        29.75S
$$

ILZ003-004-008-010-011-017-018-170800-
NORTH CENTRAL ILLINOIS

CITY           SKY/WX    TMP DP  RH WIND       PRES   REMARKS
ROCKFORD       NOT AVBL
FREEPORT*      CLOUDY    72  70  94 S9        29.77F
ROCHELLE*      CLOUDY    71  69  92 S8        29.79S
DE KALB*       CLOUDY    72  70  96 S10       29.81S
PERU*          PTCLDY    70  68  92 S8        29.79F
$$

ILZ005-006-012>014-019>023-170800-
NORTHEAST ILLINOIS

CITY           SKY/WX    TMP DP  RH WIND       PRES   REMARKS
CHICAGO-OHARE  NOT AVBL
CHICAGO-MIDWAY NOT AVBL
AURORA         NOT AVBL
LANSING*       PTCLDY    75  70  83 S12       29.82F
JOLIET*        CLOUDY    77  71  83 S8        29.81F
WAUKEGAN       NOT AVBL
DUPAGE AIRPORT NOT AVBL
KANKAKEE*      CLOUDY    73  70  88 S8        29.84F
WHEELING       NOT AVBL
MORRIS*        CLOUDY    74  69  85 S10       29.80F
ROMEOVILLE*    CLOUDY    75  68  79 SW13      29.81F
NORTHERLY ISL    N/A     77  70  79 S16         N/A
$$

LMZ740>746-170800-
SOUTHERN LAKE MICHIGAN

STATION/POSITION SKY/WX   TEMP    WIND        PRES    VSBY  WAVE
                          AIR SEA DIR/SP/G                  HT/PER
                          (F)     (DEG/KT/KT) (MB)    (MI)  (FT/S)
SOUTHERN BUOY              74 72  230/ 14/ 23 1010.0          1/ 3
WILMETTE HARBOR            77 73  200/ 12/ 17   N/A           2/ 3
HARRISON CRIB              78     200/ 20/ 22   N/A
CALUMET HARBOR                    180/  9/ 13 1008.7F
BURNS HARBOR               78     190/ 16/ 20 1010.2F
MICHIGAN CITY              77     180/ 12/ 15   N/A
MICHIGAN CITY 6N           77 75  200/ 14/ 17   N/A           2/ 2
ST. JOSEPH                 76 74  210/ 12/ 14 1009.4          2/ 2
$$

ILZ025>027-034>036-040-047-049-050-058-095>099-170800-
WEST-CENTRAL ILLINOIS

CITY           SKY/WX    TMP DP  RH WIND       PRES   REMARKS
QUINCY         MOCLDY    71  69  93 S10       29.82F
GALESBURG*     CLOUDY    70  67  92 S9        29.81R
MACOMB*        MOCLDY    70  68  93 SW12      29.83R
JACKSONVILLE*  LGT RAIN  70  67  89 SW12      29.81S
PITTSFIELD*    LGT RAIN  71  69  95 SW8       29.83F
$$

ILZ028>032-037-038-041>044-048-051>054-059>061-170800-
CENTRAL ILLINOIS

CITY           SKY/WX    TMP DP  RH WIND       PRES   REMARKS
PONTIAC        CLOUDY    73  72  94 CALM      29.83S
DECATUR        PTCLDY    72  70  93 S12       29.85F
PEORIA         NOT AVBL
LACON*         CLOUDY    71  69  92 SW5       29.80R
LINCOLN*       CLOUDY    71  71 100 S12G21    29.80F
SPRINGFIELD    CLOUDY    74  68  81 S10G21    29.81F
TAYLORVILLE    LGT RAIN  70  68  95 S7        29.84F
$$

ILZ033-039-045-046-055>057-062-063-170800-
EAST-CENTRAL ILLINOIS

CITY           SKY/WX    TMP DP  RH WIND       PRES   REMARKS
RANTOUL*       PTCLDY    72  71  97 S6        29.86F
MATTOON        CLEAR     71  71 100 S6        29.87F
PARIS*         PTCLDY    69  69 100 SE6       29.89F
$$

ILZ079-100>102-170800-
SOUTHWEST ILLINOIS

CITY           SKY/WX    TMP DP  RH WIND       PRES   REMARKS
ALTON          HVY RAIN  70  70 100 S14       29.88F
BELLEVILLE     LGT RAIN  72  70  94 W7        29.90S FOG
CAHOKIA*       RAIN      72  69  90 S5        29.88F FOG
SPARTA*        CLOUDY    72  70  93 S8        29.89F
$$

ILZ064>066-069>071-074>076-080>082-084>086-088>090-092>094-170800-
SOUTH-CENTRAL ILLINOIS

CITY           SKY/WX    TMP DP  RH WIND       PRES   REMARKS
CARBONDALE     CLOUDY    71  71 100 S3        29.89F
CAIRO*         CLEAR     77  75  94 S8        29.91F
EFFINGHAM*     PTCLDY    69  69 100 SE5       29.90F FOG
MARION         CLEAR     72  72 100 S5        29.91F
CENTRALIA*     CLOUDY    73  71  94 S9        29.87F
SALEM*         CLOUDY    73  70  89 S5        29.88F
METROPOLIS*    CLEAR     78  75  91 S8        29.92F HX  80
$$

ILZ067-068-072-073-078-083-087-091-170800-
SOUTHEAST ILLINOIS

CITY           SKY/WX    TMP DP  RH WIND       PRES   REMARKS
LAWRENCEVILLE  CLOUDY    74  73  97 CALM      29.90S
FLORA*         CLOUDY    73  70  93 S6        29.87S
FAIRFIELD*     MOCLDY    71  71 100 CALM      29.89S
HARRISBURG*    CLEAR     74  73  95 CALM      29.91F
ROBINSON*      FOG       67  67 100 CALM      29.91S VSB 1/4
CARMI*         CLEAR     72  72  99 S5        29.90F
$$

ABBREVIATIONS USED IN REMARKS
   TC - TEMPERATURE IN CELSIUS
  WCI - WIND CHILL INDEX
   HX - HEAT INDEX
  VSB - VISIBILITY
$$





USA.gov is the U.S. government's official web portal to all federal, state and local government web resources and services.